#timestamp,LO_Frequency,Hit,StdDev 
1549069215.9,286047001.7,N
1549069235.7,286047001.3,N
1549069255.6,286047001.5,N
1549069275.4,286046999.8,N
1549069295.2,286047000.0,N
1549069315.1,286047000.5,N
1549069316.0,286047000.5,N
1549069335.8,286047000.6,N
1549069355.6,286047000.2,N
1549069375.5,286047002.6,N
1549069395.3,286047000.0,N
1549069415.2,286047000.1,N
1549069435.9,286047002.1,N
1549069455.7,286046999.9,N
1549069475.6,286047000.4,N
1549069495.4,286047000.2,N
1549069515.2,286047002.5,N
1549069535.1,286047000.0,N
1549069536.0,286047000.0,N
1549069555.8,286047002.3,N
1549069575.7,286047001.7,N
1549069595.5,286047000.2,N
1549069615.3,286046999.8,N
1549069635.2,286047000.1,N
1549069655.0,286047001.9,N
1549069655.9,286047001.9,N
1549069675.8,286047002.8,N
1549069695.6,286047001.9,N
1549069715.5,286047001.8,N
1549069735.3,286047001.9,N
1549069755.1,286047001.3,N
1549069775.9,286047002.1,N
1549069795.7,286047002.8,N
1549069815.5,286047000.3,N
1549069835.4,286046999.8,N
1549069855.2,286047002.4,N
1549069875.0,286046999.7,N
1549069875.9,286046999.7,N
1549069895.8,286047000.0,N
1549069915.6,286047001.5,N
1549069935.4,286047001.4,N
1549069955.3,286047001.8,N
1549069975.1,286047001.3,N
1549069995.8,286047002.1,N
1549070015.7,286047001.9,N
1549070035.5,286047000.3,N
1549070055.4,286047002.3,N
1549070075.4,286047002.0,N
1549070095.3,286047001.6,N
1549070115.1,286047002.5,N
1549070116.0,286047002.5,N
1549070135.8,286047001.5,N
1549070155.7,286047002.6,N
1549070175.5,286047002.6,N
1549070195.3,286047002.7,N
1549070215.2,286046999.8,N
1549070235.0,286047002.3,N
1549070235.9,286047002.3,N
1549070255.8,286047002.2,N
1549070275.6,286047004.4,Y
1549070295.5,286047000.9,P
1549070315.3,286047002.6,P
1549070335.1,286047002.6,P
1549070355.9,286046998.1,N
1549070375.7,286046998.9,N
1549070395.6,286047000.8,N
1549070415.4,286046998.6,N
1549070435.2,286046998.2,N
1549070455.1,286046999.0,N
1549070456.0,286046999.0,N
1549070475.8,286046998.8,N
1549070495.7,286046999.3,N
1549070515.5,286046998.3,N
1549070535.3,286047000.9,N
1549070555.2,286047002.7,N
1549070575.0,286046999.9,N
1549070575.9,286046999.9,N
1549070595.8,286047001.1,N
1549070615.6,286047001.2,N
1549070635.4,286047000.6,N
1549070655.3,286047002.8,N
1549070675.1,286046999.8,N
1549070695.9,286047000.2,N
1549070715.7,286047001.6,N
1549070735.5,286047001.5,N
1549070755.4,286047002.2,N
1549070775.2,286047001.4,N
1549070795.0,286047002.5,N
1549070795.9,286047002.5,N
1549070815.8,286047004.4,N
1549070835.6,286047004.4,N
1549070855.5,286047002.1,N
1549070875.3,286047002.5,N
1549070895.1,286047001.5,N
1549070915.9,286047002.8,N
1549070935.7,286047002.6,N
1549070955.5,286047002.5,N
1549070975.4,286047004.4,N
1549070995.2,286047002.4,N
1549071015.1,286047002.0,N
1549071016.0,286047002.0,N
1549071035.8,286047000.1,N
1549071055.6,286047002.7,N
1549071075.5,286047001.6,N
1549071095.3,286047002.1,N
1549071115.1,286047002.2,N
1549071135.9,286047002.5,N
1549071155.7,286046999.7,N
1549071175.6,286047000.2,N
1549071195.4,286046999.8,N
1549071215.2,286047000.3,N
1549071235.1,286047000.5,N
1549071236.0,286047000.5,N
1549071255.8,286047000.2,N
1549071275.6,286047002.5,N
1549071295.5,286047002.1,N
1549071315.3,286047001.5,N
1549071335.2,286047001.4,N
1549071355.9,286047001.9,N
1549071375.7,286047001.6,N
1549071395.6,286047004.2,Y
1549071415.4,286047002.6,P
1549071435.3,286047002.6,P
1549071455.1,286047000.5,N
1549071475.8,286046999.3,N
1549071495.7,286047000.0,N
1549071515.5,286047000.6,N
1549071535.4,286047000.4,N
1549071555.2,286047000.7,N
1549071575.0,286047000.5,N
1549071575.9,286047000.5,N
1549071595.8,286047000.7,N
1549071615.6,286046998.5,N
1549071635.4,286046998.2,N
1549071655.3,286047000.6,N
1549071675.1,286047000.0,N
1549071695.9,286047001.0,N
1549071715.7,286047002.3,N
1549071735.5,286047002.8,N
1549071755.4,286047000.8,N
1549071775.2,286046999.1,N
1549071795.0,286046998.3,N
1549071795.9,286046998.3,N
1549071815.8,286047000.7,N
1549071835.6,286046998.1,N
1549071855.5,286046998.1,N
1549071875.3,286046999.4,N
1549071895.1,286046999.1,N
1549071915.9,286046999.3,N
1549071935.7,286047000.7,N
1549071985.6,286047000.6,E
1549071995.5,286047000.3,N
1549072015.3,286047000.9,P
1549072035.2,286046999.9,N
1549072055.0,286047000.5,N
1549072055.9,286047000.5,N
1549072075.8,286047001.0,N
1549072095.6,286046999.7,N
1549072115.4,286047002.8,Y
1549072135.3,286047000.8,P
1549072155.1,286047000.4,N
1549072175.9,286047000.8,P
1549072195.7,286046999.4,Y
1549072215.5,286046996.5,P
1549072235.4,286046995.0,N
1549072255.2,286046997.2,N
1549072275.1,286046997.9,N
1549072276.0,286046997.9,N
1549072295.8,286046996.5,N
1549072315.6,286046998.5,N
1549072335.5,286046998.4,N
1549072355.3,286047000.5,N
1549072375.2,286047000.9,N
1549072395.9,286047000.7,N
1549072415.7,286046998.6,N
1549072435.6,286047000.7,N
1549072455.4,286047000.4,N
1549072475.2,286047001.1,N
1549072495.1,286046998.6,N
1549072496.0,286046998.6,N
1549072515.8,286046998.9,N
1549072535.7,286047001.1,N
1549072555.5,286046998.7,N
1549072575.3,286046998.2,N
1549072595.2,286046998.5,N
1549072615.0,286047000.2,N
1549072615.9,286047000.2,N
1549072635.7,286047000.1,N
1549072655.6,286047000.2,N
1549072675.4,286047002.5,N
1549072695.3,286047002.6,N
1549072715.1,286047002.8,N
1549072716.0,286047002.8,N
1549072735.8,286047001.2,N
1549072755.7,286046998.1,N
1549072775.5,286047000.8,N
1549072795.4,286047000.8,N
